Watford City, ND

1:31 AM CDT on May 27, 2018 (GMT -0500)
Watford City

Weather History for KS25 - November, 2013

Change the Weather History Date:

Saturday, November 9, 2013

  Actual Average (WUND) Record (WUND)
Temperature  
Mean Temperature 26 °F -  
Max Temperature 35 °F - - (-1)
Min Temperature 17 °F - - (-1)
Degree Days  
Heating Degree Days 39    
Moisture  
Dew Point 23 °F    
Average Humidity 77    
Maximum Humidity 93    
Minimum Humidity 60    
Precipitation  
Precipitation 0.00 in - - ()
Sea Level Pressure  
Sea Level Pressure 30.10 in    
Wind  
Wind Speed 13 mph (WNW)    
Max Wind Speed 23 mph    
Max Gust Speed 31 mph    
Visibility 10 miles    
Events      
Averages and records for this station are not official NWS values.
T = Trace of Precipitation, MM = Missing Value Source: NWS Daily Summary

Daily Weather History Graph

Daily Weather History Graph

Search for Another Location

Airport or City:

Astronomy

Nov. 09, 2013 Rise Set
Actual Time 7:50 AM CST 5:22 PM CST
Civil Twilight 7:17 AM CST 5:56 PM CST
Nautical Twilight 6:39 AM CST 6:33 PM CST
Astronomical Twilight 6:03 AM CST 7:09 PM CST
Moon 1:23 PM CST (11/9) No Moon Set
Length of Visible Light 10h 39m
Length of Day
9h 32m
Waxing Crescent, 44% of the Moon is Illuminated
Nov 9
Waxing Crescent
Nov 9
First Quarter
Nov 17
Full
Nov 25
Last Quarter
Dec 2
New

Hourly Weather History & Observations

Time (CST) Temp. Windchill Dew Point Humidity Pressure Visibility Wind Dir Wind Speed Gust Speed Precip Events Conditions
12:15 AM 35.6 °F 26.6 °F 32.0 °F 87% 29.84 in 10.0 mi WNW 13.8 mph 21.9 mph N/A   Scattered Clouds
12:35 AM 33.8 °F 23.9 °F 32.0 °F 93% 29.85 in 10.0 mi WNW 15.0 mph 21.9 mph N/A   Scattered Clouds
12:55 AM 32.0 °F 22.1 °F 30.2 °F 93% 29.86 in 10.0 mi WNW 13.8 mph 21.9 mph N/A   Scattered Clouds
1:15 AM 33.8 °F 23.5 °F 30.2 °F 87% 29.88 in 10.0 mi WNW 16.1 mph 24.2 mph N/A   Mostly Cloudy
1:35 AM 33.8 °F 23.9 °F 28.4 °F 81% 29.89 in 10.0 mi NW 15.0 mph 20.7 mph N/A   Overcast
1:55 AM 32.0 °F 20.8 °F 28.4 °F 87% 29.89 in 10.0 mi WNW 17.3 mph 23.0 mph N/A   Overcast
2:15 AM 32.0 °F 19.2 °F 28.4 °F 87% 29.90 in 10.0 mi WNW 23.0 mph 31.1 mph N/A   Overcast
2:35 AM 32.0 °F 21.6 °F 26.6 °F 80% 29.91 in 10.0 mi WNW 15.0 mph 25.3 mph N/A   Overcast
2:55 AM 32.0 °F 22.1 °F 26.6 °F 80% 29.92 in 10.0 mi WNW 13.8 mph - N/A   Overcast
3:15 AM 32.0 °F 22.5 °F 26.6 °F 80% 29.93 in 10.0 mi WNW 12.7 mph - N/A   Overcast
3:35 AM 32.0 °F 24.2 °F 26.6 °F 80% 29.94 in 10.0 mi WNW 9.2 mph - N/A   Overcast
3:55 AM 32.0 °F 24.2 °F 26.6 °F 80% 29.94 in 10.0 mi West 9.2 mph - N/A   Mostly Cloudy
4:15 AM 30.2 °F 21.9 °F 24.8 °F 80% 29.94 in 10.0 mi West 9.2 mph - N/A   Partly Cloudy
4:35 AM 30.2 °F 20.8 °F 24.8 °F 80% 29.95 in 10.0 mi West 11.5 mph - N/A   Mostly Cloudy
4:55 AM 32.0 °F 21.2 °F 23.0 °F 69% 29.96 in 10.0 mi WNW 16.1 mph 19.6 mph N/A   Mostly Cloudy
5:15 AM 32.0 °F 22.5 °F 23.0 °F 69% 29.97 in 10.0 mi WNW 12.7 mph 18.4 mph N/A   Mostly Cloudy
5:35 AM 32.0 °F 21.2 °F 23.0 °F 69% 29.98 in 10.0 mi WNW 16.1 mph 23.0 mph N/A   Overcast
5:55 AM 32.0 °F 22.5 °F 23.0 °F 69% 29.99 in 10.0 mi WNW 12.7 mph 20.7 mph N/A   Overcast
6:15 AM 32.0 °F 20.8 °F 24.8 °F 75% 30.00 in 10.0 mi WNW 17.3 mph 26.5 mph N/A   Overcast
6:35 AM 32.0 °F 20.5 °F 24.8 °F 75% 30.01 in 10.0 mi WNW 18.4 mph 24.2 mph N/A   Overcast
6:55 AM 32.0 °F 20.1 °F 24.8 °F 75% 30.01 in 10.0 mi WNW 19.6 mph 24.2 mph N/A   Overcast
7:15 AM 32.0 °F 19.8 °F 23.0 °F 69% 30.02 in 10.0 mi NW 20.7 mph 31.1 mph N/A   Overcast
7:35 AM 32.0 °F 19.2 °F 23.0 °F 69% 30.03 in 10.0 mi NW 23.0 mph 27.6 mph N/A   Overcast
7:55 AM 30.2 °F 18.5 °F 23.0 °F 75% 30.05 in 10.0 mi NW 17.3 mph 23.0 mph N/A   Overcast
8:15 AM 30.2 °F 19.8 °F 23.0 °F 75% 30.07 in 10.0 mi WNW 13.8 mph 19.6 mph N/A   Overcast
8:35 AM 32.0 °F 21.6 °F 23.0 °F 69% 30.08 in 10.0 mi WNW 15.0 mph 19.6 mph N/A   Overcast
8:55 AM 32.0 °F 22.1 °F 23.0 °F 69% 30.09 in 10.0 mi WNW 13.8 mph 27.6 mph N/A   Overcast
9:15 AM 32.0 °F 19.8 °F 23.0 °F 69% 30.10 in 10.0 mi WNW 20.7 mph 29.9 mph N/A   Overcast
9:35 AM 32.0 °F 20.8 °F 23.0 °F 69% 30.11 in 10.0 mi NW 17.3 mph 25.3 mph N/A   Overcast
9:55 AM 32.0 °F 20.5 °F 23.0 °F 69% 30.11 in 10.0 mi WNW 18.4 mph 26.5 mph N/A   Overcast
10:15 AM 32.0 °F 20.5 °F 23.0 °F 69% 30.12 in 10.0 mi NW 18.4 mph 26.5 mph N/A   Overcast
10:35 AM 32.0 °F 21.6 °F 23.0 °F 69% 30.14 in 10.0 mi WNW 15.0 mph 24.2 mph N/A   Overcast
10:55 AM 32.0 °F 21.6 °F 23.0 °F 69% 30.15 in 10.0 mi NW 15.0 mph 21.9 mph N/A   Overcast
11:15 AM 32.0 °F 20.8 °F 23.0 °F 69% 30.16 in 10.0 mi NW 17.3 mph 21.9 mph N/A   Overcast
11:35 AM 32.0 °F 20.5 °F 23.0 °F 69% 30.16 in 10.0 mi NW 18.4 mph 27.6 mph N/A   Overcast
11:55 AM 32.0 °F 20.5 °F 23.0 °F 69% 30.18 in 10.0 mi NW 18.4 mph 25.3 mph N/A   Mostly Cloudy
12:15 PM 32.0 °F 20.8 °F 23.0 °F 69% 30.18 in 10.0 mi NW 17.3 mph 20.7 mph N/A   Overcast
12:35 PM 32.0 °F 21.6 °F 23.0 °F 69% 30.18 in 10.0 mi WNW 15.0 mph 23.0 mph N/A   Overcast
12:55 PM 32.0 °F 22.1 °F 23.0 °F 69% 30.19 in 10.0 mi WNW 13.8 mph 23.0 mph N/A   Overcast
1:15 PM 32.0 °F 21.6 °F 23.0 °F 69% 30.19 in 10.0 mi NW 15.0 mph - N/A   Overcast
1:35 PM 32.0 °F 21.6 °F 23.0 °F 69% 30.19 in 10.0 mi NW 15.0 mph 21.9 mph N/A   Overcast
1:55 PM 32.0 °F 22.1 °F 23.0 °F 69% 30.19 in 10.0 mi NW 13.8 mph 20.7 mph N/A   Overcast
2:15 PM 32.0 °F 22.5 °F 23.0 °F 69% 30.19 in 10.0 mi NW 12.7 mph - N/A   Overcast
2:35 PM 32.0 °F 21.6 °F 21.2 °F 64% 30.19 in 10.0 mi NW 15.0 mph - N/A   Overcast
2:55 PM 33.8 °F 25.3 °F 23.0 °F 65% 30.19 in 10.0 mi WNW 11.5 mph 17.3 mph N/A   Mostly Cloudy
3:15 PM 33.8 °F 24.8 °F 21.2 °F 60% 30.19 in 10.0 mi WNW 12.7 mph 18.4 mph N/A   Partly Cloudy
3:35 PM 33.8 °F 25.8 °F 23.0 °F 65% 30.20 in 10.0 mi WNW 10.4 mph - N/A   Clear
3:55 PM 33.8 °F 25.3 °F 23.0 °F 65% 30.20 in 10.0 mi NW 11.5 mph - N/A   Clear
4:15 PM 33.8 °F 27.0 °F 23.0 °F 65% 30.20 in 10.0 mi NW 8.1 mph - N/A   Clear
4:35 PM 32.0 °F 24.2 °F 23.0 °F 69% 30.20 in 10.0 mi WNW 9.2 mph - N/A   Clear
4:55 PM 32.0 °F 26.4 °F 23.0 °F 69% 30.21 in 10.0 mi WNW 5.8 mph - N/A   Clear
5:15 PM 32.0 °F 27.5 °F 23.0 °F 69% 30.22 in 10.0 mi West 4.6 mph - N/A   Clear
5:35 PM 28.4 °F 24.6 °F 23.0 °F 80% 30.22 in 10.0 mi West 3.5 mph - N/A   Clear
5:55 PM 26.6 °F 21.2 °F 21.2 °F 80% 30.22 in 10.0 mi West 4.6 mph - N/A   Clear
6:15 PM 24.8 °F 17.9 °F 21.2 °F 86% 30.23 in 10.0 mi SSW 5.8 mph - N/A   Clear
6:35 PM 23.0 °F 14.7 °F 19.4 °F 86% 30.22 in 10.0 mi South 6.9 mph - N/A   Clear
6:55 PM 24.8 °F 19.1 °F 19.4 °F 80% 30.22 in 10.0 mi South 4.6 mph - N/A   Clear
7:15 PM 24.8 °F 20.5 °F 21.2 °F 86% 30.23 in 10.0 mi SSW 3.5 mph - N/A   Clear
7:35 PM 23.0 °F - 19.4 °F 86% 30.22 in 10.0 mi Calm Calm - N/A   Clear
8:35 PM 21.2 °F - 19.4 °F 93% 30.21 in 10.0 mi Calm Calm - N/A   Clear
8:55 PM 17.6 °F 12.3 °F 15.8 °F 93% 30.21 in 10.0 mi West 3.5 mph - N/A   Clear
9:15 PM 19.4 °F - 17.6 °F 93% 30.21 in 10.0 mi Calm Calm - N/A   Clear
9:35 PM 19.4 °F - 17.6 °F 93% 30.20 in 10.0 mi Calm Calm - N/A   Clear
9:55 PM 17.6 °F 12.3 °F 15.8 °F 93% 30.20 in 10.0 mi West 3.5 mph - N/A   Clear
10:15 PM 17.6 °F - 15.8 °F 93% 30.20 in 10.0 mi Calm Calm - N/A   Clear
10:35 PM 17.6 °F 12.3 °F 15.8 °F 93% 30.21 in 10.0 mi WSW 3.5 mph - N/A   Clear
10:55 PM 17.6 °F 9.3 °F 15.8 °F 93% 30.20 in 10.0 mi SSW 5.8 mph - N/A   Clear
11:15 PM 17.6 °F - 15.8 °F 93% 30.20 in 10.0 mi Calm Calm - N/A   Clear
11:35 PM 17.6 °F - 15.8 °F 93% 30.19 in 10.0 mi Calm Calm - N/A   Clear
11:55 PM 17.6 °F - 15.8 °F 93% 30.19 in 10.0 mi Calm Calm - N/A   Clear